Regional Weather Roundup
Issued by NWS New Orleans/Baton Rouge, LA

Home | Current Version | Previous Version | Text Only | Print | Product List | Glossary Off
Versions: 1 2 3 4 5 6 7 8 9 10 11 12 13 14 15 16 17 18 19 20 21 22 23 24 25 26 27 28 29 30 31 32 33 34 35 36 37 38 39 40 41 42 43 44 45 46 47 48 49 50

553
ASUS44 KLIX 222205
RWRLIX
NEW ORLEANS REGIONAL WEATHER ROUNDUP
NATIONAL WEATHER SERVICE NEW ORLEANS LA
500 PM CDT WED OCT 22 2014

NOTE: "FAIR" INDICATES FEW OR NO CLOUDS BELOW 12,000 FEET WITH NO
      SIGNIFICANT WEATHER AND/OR OBSTRUCTIONS TO VISIBILITY.
      SKY/WX - SKY CONDITION AND SIGNIFICANT WEATHER.
      TMP - AIR TEMPERATURE.     DP    - DEWPOINT TEMPERATURE.
      RH  - RELATIVE HUMIDITY.   PRES  - PRESSURE.
      HI  - HEAT INDEX.          WCI   - WIND CHILL INDEX.

*  THESE STATIONS ARE NOT NWS OR FAA STATIONS AND ARE NOT UNDER
   NWS QUALITY CONTROL.

LAZ038-040-048-061>063-065>067-069-222300-
SOUTHEAST LOUISIANA

CITY           SKY/WX    TMP DP  RH WIND       PRES   REMARKS
N.O. AUDUBON     N/A     78  53  41 MISG        N/A
N.O. INTL ARPT SUNNY     79  51  37 NE6       30.02S
N.O. LAKEFRONT SUNNY     76  57  51 W5        30.03S
N.O. DOWNTOWN*   N/A     79  50  36 N5        30.03S
SLIDELL        SUNNY     79  51  37 N7        30.02S
BATON ROUGE    SUNNY     79  51  37 N9        30.03F
BOOTHVILLE     SUNNY     75  59  57 NE8       30.02S
BELLE CHASSE   SUNNY     78  54  43 VRB6      30.02R
BOGALUSA*        N/A     79  47  32 N8        30.05S
NEW ROADS*       N/A     77  53  42 N7        30.04S
GONZALES*        N/A     79  52  39 N6        30.02S
HAMMOND*       SUNNY     81  45  28 N5        30.05R
HOUMA*         SUNNY     79  57  47 N12       30.02R
PORT FOURCHON* CLEAR     75  57  53 NE13G18   30.04S

$$

MSZ070-080>082-222300-
SOUTHERN MISSISSIPPI

CITY           SKY/WX    TMP DP  RH WIND       PRES   REMARKS
MCCOMB         SUNNY     77  47  34 N10       30.06S
GULFPORT       SUNNY     78  50  37 NE9       30.01S
BILOXI         SUNNY     78  52  40 N8        30.01F
PASCAGOULA     SUNNY     78  51  38 N9        30.01F
STENNIS ARPT*  SUNNY     79  46  31 N9        30.02S

$$

COASTAL OBSERVATIONS
LAKE AND NEARSHORE STATIONS

STATION/POSITION TIME  TEMP    WIND        PRES    WAVE
                       AIR SEA DIR/SP/G            HT/PER
                 (UTC) (F)     (DEG/KT/KT) (MB)    (FT/S)
PASCAGOULA       2200   78      20/  7/ 14 1015.8
WAVELAND YACHT   2200   77      40/  9/  9 1015.7
GRAND ISLE       2200   75 75   60/ 10/ 13 1016.8
SOUTHWEST PASS   2200   83 83              1016.0
NEW CANAL        2200   75 73  330/  2/  3 1017.1
SHELL BEACH      2200   76 70   60/  8/  9 1016.3

OFFSHORE STATIONS

STATION/POSITION TIME  TEMP    WIND        PRES    WAVE
                       AIR SEA DIR/SP/G            HT/PER
                 (UTC) (F)     (DEG/KT/KT) (MB)    (FT/S)
64 S DAUPHIN ISL 2057   74 80   40/ 14/ 16 1016.3    3/ 5

$$




USA.gov is the U.S. government's official web portal to all federal, state and local government web resources and services.